Terminal Aerodrome Forecast
Issued by NWS

Home | Current Version | Previous Version | Graphics & Text | Print | Product List | Glossary On
Versions: 1 2 3 4 5 6 7 8 9 10 11 12 13 14 15 16 17 18 19
000
FTUS41 KCLE 261100 RRA
TAFFDY
TAF
KFDY 261142Z 2612/2712 22010KT P6SM SCT030 BKN150
      TEMPO 2612/2614 BKN012
     FM261700 19015G22KT P6SM BKN040
     FM262200 18017G25KT P6SM VCTS BKN040CB OVC080
     FM270100 19015G22KT P6SM BKN020
     FM270400 20012KT P6SM SCT008 BKN200=

USA.gov is the U.S. government's official web portal to all federal, state and local government web resources and services.